ニート彗星

240P/NEAT (2010)

English version
Home page
Updated on June 11, 2016

---------------------------------------------------------------------

・ プロフィール

符号 240P/2010 P1
検出日 2010年8月9日、10日、11日
検出光度 17.3等、16.9等、17.5等、16.8等
検出者 H. Taylor (Rayle, GA, U.S.A.), Hidetaka Sato (Tokyo, Japan; remotely, RAS Observatory, Mayhill, NM, U.S.A.), Leonid Elenin (Lyubertsy, Russia; remotely, ISON-NM Observatory, Mayhill), Toru Yusa (remotely, RAS Observatory, Mayhill, NM, U.S.A.)

・ 写真集

・ 軌道要素

Epoch 2010 Oct. 11.0 TT = JDT 2455480.5
T 2010 Oct. 4.27279 TT                                  MPCW
q   2.1237717            (2000.0)            P               Q
n   0.12986917     Peri.  351.92630     +0.38105129     -0.84036695
a   3.8618791      Node    74.97458     +0.86899810     +0.18319679
e   0.4500678      Incl.   23.52257     +0.31566156     +0.51011991
P   7.59
From 1662 observations 2002 Oct. 5-2012 May 16, mean residual 0".6.
     Nongravitational parameters A1 = -1.04, A2 = +1.1189.

・ 星図

・ 光度変化

        m1 =    7.8 + 5 logΔ +  20.0 log r           [   ,174]  (              〜2011年 3月27日)
        m1 = -249   + 5 logΔ + 800   log r(t - 210)  [174,210]  (2011年 3月27日〜2011年 5月 2日)
        m1 =    7.4 + 5 logΔ +  16.0 log r(t - 230)  [210,   ]  (2011年 5月 2日〜              )

---------------------------------------------------------------------

軌道要素はM.P.E.C. 2015-M77に掲載されたものです。
星図はステラナビゲータ Ver.8 (アストロアーツ) で作成したものです。
光度グラフはComet for Windowsで作成したものです。

---------------------------------------------------------------------

Copyright(C) Seiichi Yoshida (comet@aerith.net). All rights reserved.